Location: Newark
(36.1358°N, 115.1208°W)
Time: 04:13:28
(UTC+00:00)

BlueWalker 3 - Visible Passes

Search period start: 03 December 2023 00:00
Search period end: 13 December 2023 00:00
Orbit: 489 x 503 km, 53.2° (Epoch: 02 December)

Date Brightness Start Highest point End Pass type
(mag) Time Alt. Az. Time Alt. Az. Time Alt. Az.
03 Dec 3.0 13:08:25 21° NNW 13:10:28 37° NE 13:14:02 10° ESE visible
04 Dec 3.0 12:46:56 33° N 12:47:46 37° NE 12:51:19 10° ESE visible
05 Dec 3.3 12:25:29 35° NE 12:25:29 35° NE 12:28:35 10° ESE visible
05 Dec 3.4 14:00:12 10° WNW 14:03:13 23° SW 14:06:14 10° S visible
06 Dec 4.3 12:04:05 23° E 12:04:05 23° E 12:05:49 10° ESE visible
06 Dec 3.3 13:38:39 16° W 13:40:28 23° SW 13:43:31 10° S visible
07 Dec 5.2 11:42:43 12° ESE 11:42:43 12° ESE 11:43:02 10° ESE visible
07 Dec 3.2 13:17:18 23° WSW 13:17:41 23° SW 13:20:46 10° S visible
08 Dec 3.6 12:55:58 21° SSW 12:55:58 21° SSW 12:57:58 10° S visible
09 Dec 4.5 12:34:41 13° S 12:34:41 13° S 12:35:10 10° S visible
12 Dec 4.6 03:02:59 10° SW 03:03:56 17° SW 03:03:56 17° SW visible
